Location: Chmeln�
(49.6483°N, 14.9871°E)
Time: 06:45:06
(UTC+00:00)

Lacrosse 5 rocket - Pass Details

Date: 17 January 2021
Orbit: 465 x 630 km, 57.0° (Epoch: 06 March)

Event Time Altitude Azimuth Distance (km) Brightness Sun altitude
Exits shadow 03:58:22 25° 37° (NE) 1,062 3.1 -27.1°
Drops below altitude 10° 04:00:44 10° 70° (ENE) 1,721 4.7 -26.7°
Sets 04:03:04 0° 82° (E) 2,578 6.0 -26.4°
